Hourly Weather Jukow

Today, 11 May, Tuesday

Time Temperature Precipitation Wind Pressure Humidity
00:00 +14°C° 0 mm 4 mps 748 mmHg 90%
01:00 +14°C° 0 mm 3 mps 748 mmHg 88%
02:00 +13°C° 0 mm 4 mps 748 mmHg 88%
03:00 +13°C° 0 mm 4 mps 748 mmHg 88%
04:00 +13°C° 0 mm 4 mps 748 mmHg 87%
05:00 +14°C° 0 mm 4 mps 748 mmHg 84%
06:00 +15°C° 0 mm 5 mps 748 mmHg 81%
07:00 +16°C° 0 mm 6 mps 748 mmHg 78%
08:00 +19°C° 0 mm 6 mps 748 mmHg 73%
09:00 +21°C° 0 mm 7 mps 748 mmHg 69%
10:00 +22°C° 0 mm 7 mps 747 mmHg 65%
11:00 +23°C° 0 mm 7 mps 747 mmHg 62%
12:00 +24°C° 0 mm 7 mps 747 mmHg 59%
13:00 +26°C° 0 mm 7 mps 747 mmHg 56%
14:00 +26°C° 0 mm 7 mps 746 mmHg 58%
15:00 +26°C° 0 mm 7 mps 746 mmHg 61%
16:00 +26°C° 0 mm 7 mps 746 mmHg 63%
17:00 +23°C° 0 mm 7 mps 746 mmHg 66%
18:00 +21°C° 0 mm 7 mps 746 mmHg 70%
19:00 +20°C° 0 mm 7 mps 746 mmHg 73%
20:00 +18°C° 0 mm 7 mps 746 mmHg 73%
21:00 +17°C° 0 mm 7 mps 746 mmHg 73%
22:00 +16°C° 0 mm 7 mps 746 mmHg 73%
23:00 +15°C° 0 mm 6 mps 746 mmHg 75%

Tomorrow, 12 May, Wednesday

Time Temperature Precipitation Wind Pressure Humidity
00:00 +15°C° 0 mm 6 mps 746 mmHg 76%
01:00 +14°C° 0 mm 6 mps 746 mmHg 77%
02:00 +13°C° 0 mm 6 mps 745 mmHg 77%
03:00 +11°C° 0 mm 6 mps 745 mmHg 77%
04:00 +11°C° 0 mm 6 mps 745 mmHg 76%
05:00 +13°C° 0 mm 6 mps 745 mmHg 74%
06:00 +13°C° 0 mm 6 mps 745 mmHg 73%
07:00 +14°C° 0 mm 6 mps 746 mmHg 71%
08:00 +16°C° 0 mm 7 mps 746 mmHg 68%
09:00 +18°C° 0 mm 7 mps 746 mmHg 64%
10:00 +20°C° 0 mm 7 mps 746 mmHg 61%
11:00 +21°C° 0 mm 7 mps 746 mmHg 59%
12:00 +22°C° 0 mm 7 mps 745 mmHg 57%
13:00 +23°C° 0 mm 7 mps 745 mmHg 55%
14:00 +23°C° 0 mm 7 mps 745 mmHg 57%
15:00 +23°C° 0 mm 7 mps 745 mmHg 60%
16:00 +23°C° 0 mm 6 mps 744 mmHg 62%
17:00 +21°C° 0 mm 6 mps 745 mmHg 67%
18:00 +17°C° 0 mm 6 mps 745 mmHg 71%
19:00 +15°C° 0 mm 6 mps 745 mmHg 76%
20:00 +14°C° 0 mm 6 mps 745 mmHg 75%
21:00 +13°C° 0 mm 5 mps 745 mmHg 75%
22:00 +12°C° 0 mm 5 mps 745 mmHg 75%
23:00 +10°C° 0 mm 5 mps 744 mmHg 77%

Day after tomorrow, 13 May, Thursday

Time Temperature Precipitation Wind Pressure Humidity
00:00 +9°C° 0 mm 5 mps 744 mmHg 80%
01:00 +8°C° 0 mm 5 mps 744 mmHg 82%
02:00 +8°C° 0 mm 4 mps 744 mmHg 85%
03:00 +7°C° 0 mm 4 mps 743 mmHg 87%
04:00 +6°C° 0 mm 4 mps 743 mmHg 89%
05:00 +7°C° 0 mm 4 mps 743 mmHg 84%
06:00 +8°C° 0 mm 5 mps 743 mmHg 79%
07:00 +10°C° 0 mm 5 mps 742 mmHg 74%
08:00 +12°C° 0 mm 5 mps 742 mmHg 69%
09:00 +14°C° 0 mm 6 mps 742 mmHg 63%
10:00 +15°C° 0 mm 6 mps 741 mmHg 58%
11:00 +16°C° 0 mm 6 mps 741 mmHg 56%
12:00 +17°C° 0 mm 5 mps 741 mmHg 53%
13:00 +17°C° 0 mm 5 mps 740 mmHg 51%
14:00 +17°C° 0 mm 5 mps 740 mmHg 54%
15:00 +17°C° 0 mm 5 mps 740 mmHg 56%
16:00 +18°C° 0 mm 4 mps 740 mmHg 59%
17:00 +15°C° 0.1 mm 4 mps 739 mmHg 66%
18:00 +14°C° 0.1 mm 4 mps 739 mmHg 74%
19:00 +12°C° 0.1 mm 4 mps 739 mmHg 82%
20:00 +12°C° 0 mm 3 mps 739 mmHg 84%
21:00 +11°C° 0 mm 3 mps 739 mmHg 86%
22:00 +12°C° 0 mm 2 mps 739 mmHg 88%
23:00 +12°C° 0 mm 2 mps 739 mmHg 89%

14 May, Friday

Time Temperature Precipitation Wind Pressure Humidity
00:00 +12°C° 0 mm 2 mps 739 mmHg 89%
01:00 +11°C° 0 mm 1 mps 739 mmHg 89%
02:00 +11°C° 0 mm 1 mps 739 mmHg 90%
03:00 +11°C° 0 mm 1 mps 739 mmHg 91%
04:00 +11°C° 0 mm 1 mps 739 mmHg 92%
05:00 +12°C° 0 mm 1 mps 739 mmHg 89%
06:00 +12°C° 0 mm 1 mps 739 mmHg 87%
07:00 +13°C° 0 mm 1 mps 739 mmHg 84%
08:00 +14°C° 0.4 mm 1 mps 739 mmHg 81%
09:00 +15°C° 0.4 mm 1 mps 739 mmHg 77%
10:00 +15°C° 0.4 mm 1 mps 740 mmHg 74%
11:00 +16°C° 0.4 mm 1 mps 740 mmHg 72%
12:00 +17°C° 0.4 mm 2 mps 740 mmHg 69%
13:00 +17°C° 0.4 mm 2 mps 740 mmHg 66%
14:00 +17°C° 0.7 mm 3 mps 740 mmHg 70%
15:00 +17°C° 0.7 mm 3 mps 740 mmHg 73%
16:00 +15°C° 0.7 mm 4 mps 740 mmHg 76%
17:00 +14°C° 0.6 mm 4 mps 741 mmHg 81%
18:00 +13°C° 0.6 mm 4 mps 741 mmHg 85%
19:00 +12°C° 0.6 mm 5 mps 741 mmHg 90%
20:00 +12°C° 0 mm 5 mps 741 mmHg 92%
21:00 +10°C° 0 mm 5 mps 742 mmHg 94%
22:00 +9°C° 0 mm 5 mps 742 mmHg 95%
23:00 +10°C° 0 mm 4 mps 742 mmHg 95%

15 May, Saturday

Time Temperature Precipitation Wind Pressure Humidity
00:00 +10°C° 0 mm 4 mps 743 mmHg 94%
01:00 +8°C° 0 mm 4 mps 743 mmHg 94%
02:00 +9°C° 0 mm 3 mps 743 mmHg 94%
03:00 +9°C° 0 mm 3 mps 744 mmHg 94%
04:00 +9°C° 0 mm 3 mps 744 mmHg 94%
05:00 +9°C° 0 mm 3 mps 744 mmHg 93%
06:00 +10°C° 0 mm 3 mps 744 mmHg 91%
07:00 +11°C° 0 mm 3 mps 744 mmHg 89%
08:00 +11°C° 0.1 mm 3 mps 745 mmHg 89%
09:00 +11°C° 0.1 mm 3 mps 745 mmHg 89%
10:00 +11°C° 0.1 mm 4 mps 745 mmHg 89%
11:00 +12°C° 0.2 mm 4 mps 745 mmHg 84%
12:00 +13°C° 0.2 mm 4 mps 745 mmHg 79%
13:00 +14°C° 0.2 mm 5 mps 745 mmHg 74%
14:00 +14°C° 0.1 mm 5 mps 745 mmHg 71%
15:00 +15°C° 0.1 mm 5 mps 745 mmHg 68%
16:00 +15°C° 0.1 mm 5 mps 745 mmHg 66%
17:00 +14°C° 0 mm 3 mps 745 mmHg 70%
18:00 +14°C° 0 mm 2 mps 745 mmHg 74%
19:00 +13°C° 0 mm 1 mps 745 mmHg 78%
20:00 +12°C° 0 mm 1 mps 745 mmHg 80%
21:00 +11°C° 0 mm 1 mps 745 mmHg 81%
22:00 +10°C° 0 mm 1 mps 745 mmHg 83%
23:00 +10°C° 0 mm 1 mps 745 mmHg 84%

16 May, Sunday

Time Temperature Precipitation Wind Pressure Humidity
00:00 +10°C° 0 mm 1 mps 745 mmHg 85%
01:00 +9°C° 0 mm 2 mps 745 mmHg 86%
02:00 +8°C° 0 mm 2 mps 745 mmHg 86%
03:00 +8°C° 0 mm 2 mps 745 mmHg 87%
04:00 +8°C° 0 mm 3 mps 746 mmHg 87%
05:00 +10°C° 0 mm 2 mps 746 mmHg 83%
06:00 +12°C° 0 mm 2 mps 746 mmHg 79%
07:00 +14°C° 0 mm 2 mps 746 mmHg 74%
08:00 +14°C° 0 mm 3 mps 746 mmHg 69%
09:00 +17°C° 0 mm 3 mps 745 mmHg 64%
10:00 +18°C° 0 mm 4 mps 745 mmHg 60%
11:00 +19°C° 0.3 mm 4 mps 745 mmHg 59%
12:00 +19°C° 0.3 mm 3 mps 745 mmHg 59%
13:00 +19°C° 0.3 mm 3 mps 745 mmHg 58%
14:00 +19°C° 0.7 mm 3 mps 744 mmHg 65%
15:00 +18°C° 0.7 mm 3 mps 744 mmHg 72%
16:00 +17°C° 0.7 mm 2 mps 744 mmHg 78%
17:00 +16°C° 1.5 mm 2 mps 744 mmHg 83%
18:00 +15°C° 1.5 mm 2 mps 744 mmHg 89%
19:00 +13°C° 1.5 mm 1 mps 744 mmHg 94%
20:00 +13°C° 0.6 mm 1 mps 744 mmHg 94%
21:00 +13°C° 0.6 mm 1 mps 744 mmHg 94%
22:00 +12°C° 0.6 mm 1 mps 744 mmHg 94%
23:00 +12°C° 0.1 mm 1 mps 744 mmHg 94%
Show more

We Need Your Consent

Meteoprog and our Service Providers may store and access personal data such as cookies, device identifiers or other similar technologies on your device and process such data to personalise content and ads, as well as provide social media features and to analyse the traffic.

  • Store and/or access information on your device

    Cookies, device identifiers or other information can be stored or accessed on your device for the purposes indicated above.

  • Personalised ads and content, ad and content measurement, audience insights, and products development

    Ads and content can be personalised based on a profile. More data can be added to better personalise ads and content. Ad and content performance can be measured. Insights about the audience who saw the ads and content can be derived. Such data can be used to develop or improve user’s experience, systems and software.

By clicking ‘I Agree’ you will allow the use of indicated cookies, device identifiers, web beacons or other similar technologies. Your settings can be changed in the browser on your device.

For certain purposes, legitimate interests may be relied on, rather than consent. You can read more about this in our Privacy and Cookie Policy.